Time,TemperatureF,DewpointF,PressureIn,WindDirection,WindDirectionDegrees,WindSpeedMPH,WindSpeedGustMPH,Humidity,HourlyPrecipIn,Conditions,Clouds,dailyrainin,SoftwareType,DateUTC
2013-12-04 00:01:00,64.0,58.4,29.77,SE,135,0.0,-999.0,82,-99.99,,,0.00,Acu-Link.com,2013-12-04 05:01:00,
2013-12-04 00:16:00,63.7,58.1,29.77,SSE,157,0.0,-999.0,82,-99.99,,,0.00,Acu-Link.com,2013-12-04 05:16:00,
2013-12-04 00:31:00,63.3,57.7,29.77,SE,135,0.0,-999.0,82,-99.99,,,0.00,Acu-Link.com,2013-12-04 05:31:00,
2013-12-04 00:46:00,63.1,59.2,29.77,SE,135,0.0,-999.0,87,-99.99,,,0.00,Acu-Link.com,2013-12-04 05:46:00,
2013-12-04 01:01:00,62.8,58.9,29.77,WNW,292,0.0,-999.0,87,-99.99,,,0.00,Acu-Link.com,2013-12-04 06:01:00,
2013-12-04 01:16:00,63.0,59.1,29.77,East,90,0.0,-999.0,87,-99.99,,,0.00,Acu-Link.com,2013-12-04 06:16:00,
2013-12-04 01:32:00,63.0,59.1,29.77,SE,135,0.0,-999.0,87,-99.99,,,0.00,Acu-Link.com,2013-12-04 06:32:00,
2013-12-04 01:47:00,62.8,59.2,29.77,SE,135,0.0,-999.0,88,-99.99,,,0.00,Acu-Link.com,2013-12-04 06:47:00,
2013-12-04 02:02:00,62.2,58.9,29.77,SE,135,0.0,-999.0,89,-99.99,,,0.00,Acu-Link.com,2013-12-04 07:02:00,
2013-12-04 02:17:00,62.2,59.5,29.76,ESE,112,0.0,-999.0,91,-99.99,,,0.00,Acu-Link.com,2013-12-04 07:17:00,
2013-12-04 02:33:00,62.4,60.0,29.76,ESE,112,0.0,-999.0,92,-99.99,,,0.00,Acu-Link.com,2013-12-04 07:33:00,
2013-12-04 02:48:00,62.8,60.4,29.76,SE,135,0.0,-999.0,92,-99.99,,,0.00,Acu-Link.com,2013-12-04 07:48:00,
2013-12-04 03:03:00,62.6,60.2,29.76,SE,135,0.0,-999.0,92,-99.99,,,0.00,Acu-Link.com,2013-12-04 08:03:00,
2013-12-04 03:18:00,62.6,60.2,29.76,SSE,157,0.0,-999.0,92,-99.99,,,0.00,Acu-Link.com,2013-12-04 08:18:00,
2013-12-04 03:33:00,62.4,60.0,29.77,ESE,112,0.0,-999.0,92,-99.99,,,0.00,Acu-Link.com,2013-12-04 08:33:00,
2013-12-04 03:48:00,62.6,60.2,29.77,ESE,112,0.0,-999.0,92,-99.99,,,0.00,Acu-Link.com,2013-12-04 08:48:00,
2013-12-04 04:04:00,62.4,60.0,29.77,West,270,0.0,-999.0,92,-99.99,,,0.00,Acu-Link.com,2013-12-04 09:04:00,
2013-12-04 04:19:00,62.8,60.4,29.77,SSE,157,0.0,-999.0,92,-99.99,,,0.00,Acu-Link.com,2013-12-04 09:19:00,
2013-12-04 04:34:00,63.0,60.6,29.78,SSE,157,0.0,-999.0,92,-99.99,,,0.00,Acu-Link.com,2013-12-04 09:34:00,
2013-12-04 04:49:00,63.0,60.6,29.77,SE,135,0.0,-999.0,92,-99.99,,,0.00,Acu-Link.com,2013-12-04 09:49:00,
2013-12-04 05:04:00,63.3,60.9,29.77,East,90,1.1,-999.0,92,-99.99,,,0.00,Acu-Link.com,2013-12-04 10:04:00,
2013-12-04 05:20:00,63.3,60.9,29.78,West,270,0.0,-999.0,92,-99.99,,,0.00,Acu-Link.com,2013-12-04 10:20:00,
2013-12-04 05:35:00,63.5,61.1,29.79,NE,45,0.0,-999.0,92,-99.99,,,0.00,Acu-Link.com,2013-12-04 10:35:00,
2013-12-04 05:50:00,63.3,60.9,29.79,ESE,112,0.0,-999.0,92,-99.99,,,0.00,Acu-Link.com,2013-12-04 10:50:00,
2013-12-04 06:05:00,63.3,60.9,29.80,South,180,0.0,-999.0,92,-99.99,,,0.00,Acu-Link.com,2013-12-04 11:05:00,
2013-12-04 06:21:00,62.8,60.4,29.80,South,180,0.0,-999.0,92,-99.99,,,0.00,Acu-Link.com,2013-12-04 11:21:00,
2013-12-04 06:36:00,62.8,60.7,29.80,NE,45,0.0,-999.0,93,-99.99,,,0.00,Acu-Link.com,2013-12-04 11:36:00,
2013-12-04 06:51:00,63.0,61.2,29.81,WSW,247,1.1,-999.0,94,-99.99,,,0.00,Acu-Link.com,2013-12-04 11:51:00,
2013-12-04 07:06:00,63.1,61.6,29.81,East,90,0.0,-999.0,95,-99.99,,,0.00,Acu-Link.com,2013-12-04 12:06:00,
2013-12-04 07:21:00,63.3,61.8,29.82,NE,45,1.1,-999.0,95,-99.99,,,0.00,Acu-Link.com,2013-12-04 12:21:00,
2013-12-04 07:37:00,64.0,62.5,29.82,ESE,112,0.0,-999.0,95,-99.99,,,0.00,Acu-Link.com,2013-12-04 12:37:00,
2013-12-04 07:52:00,67.6,63.6,29.83,South,180,0.0,-999.0,87,-99.99,,,0.00,Acu-Link.com,2013-12-04 12:52:00,
2013-12-04 08:07:00,67.6,61.9,29.83,WNW,292,0.0,-999.0,82,-99.99,,,0.00,Acu-Link.com,2013-12-04 13:07:00,
2013-12-04 08:22:00,68.9,62.5,29.84,ENE,67,3.2,-999.0,80,-99.99,,,0.00,Acu-Link.com,2013-12-04 13:22:00,
2013-12-04 08:37:00,70.5,62.2,29.84,East,90,1.1,-999.0,75,-99.99,,,0.00,Acu-Link.com,2013-12-04 13:37:00,
2013-12-04 08:52:00,71.6,62.5,29.85,ENE,67,2.7,-999.0,73,-99.99,,,0.00,Acu-Link.com,2013-12-04 13:52:00,
2013-12-04 09:08:00,73.6,63.2,29.85,NNE,22,2.7,-999.0,70,-99.99,,,0.00,Acu-Link.com,2013-12-04 14:08:00,
2013-12-04 09:23:00,74.7,63.4,29.85,North,0,2.7,-999.0,68,-99.99,,,0.00,Acu-Link.com,2013-12-04 14:23:00,
2013-12-04 09:38:00,76.1,64.3,29.86,SE,135,2.7,-999.0,67,-99.99,,,0.00,Acu-Link.com,2013-12-04 14:38:00,
2013-12-04 09:54:00,77.0,64.8,29.86,NE,45,2.2,-999.0,66,-99.99,,,0.00,Acu-Link.com,2013-12-04 14:54:00,
2013-12-04 10:09:00,78.4,65.2,29.86,South,180,2.7,-999.0,64,-99.99,,,0.00,Acu-Link.com,2013-12-04 15:09:00,
2013-12-04 10:24:00,77.7,65.0,29.86,North,0,3.7,-999.0,65,-99.99,,,0.00,Acu-Link.com,2013-12-04 15:24:00,
2013-12-04 10:39:00,79.7,66.0,29.86,NE,45,3.7,-999.0,63,-99.99,,,0.00,Acu-Link.com,2013-12-04 15:39:00,
2013-12-04 10:55:00,80.4,65.7,29.86,West,270,1.7,-999.0,61,-99.99,,,0.00,Acu-Link.com,2013-12-04 15:55:00,
2013-12-04 11:10:00,82.2,66.4,29.86,NE,45,2.7,-999.0,59,-99.99,,,0.00,Acu-Link.com,2013-12-04 16:10:00,
2013-12-04 11:25:00,82.6,65.3,29.85,NNE,22,5.8,-999.0,56,-99.99,,,0.00,Acu-Link.com,2013-12-04 16:25:00,
2013-12-04 11:40:00,83.1,65.8,29.85,SSE,157,2.7,-999.0,56,-99.99,,,0.00,Acu-Link.com,2013-12-04 16:40:00,
2013-12-04 11:55:00,83.1,64.2,29.84,West,270,3.7,-999.0,53,-99.99,,,0.00,Acu-Link.com,2013-12-04 16:55:00,
2013-12-04 12:10:00,81.7,63.9,29.84,West,270,2.2,-999.0,55,-99.99,,,0.00,Acu-Link.com,2013-12-04 17:10:00,
2013-12-04 12:25:00,84.4,64.3,29.83,NNW,337,2.7,-999.0,51,-99.99,,,0.00,Acu-Link.com,2013-12-04 17:25:00,
2013-12-04 12:40:00,83.1,62.5,29.82,ENE,67,3.7,-999.0,50,-99.99,,,0.00,Acu-Link.com,2013-12-04 17:40:00,
2013-12-04 12:56:00,83.5,63.4,29.81,West,270,3.7,-999.0,51,-99.99,,,0.00,Acu-Link.com,2013-12-04 17:56:00,
2013-12-04 13:11:00,86.2,63.6,29.80,WSW,247,2.7,-999.0,47,-99.99,,,0.00,Acu-Link.com,2013-12-04 18:11:00,
2013-12-04 13:26:00,83.1,61.9,29.80,NW,315,1.1,-999.0,49,-99.99,,,0.00,Acu-Link.com,2013-12-04 18:26:00,
2013-12-04 13:41:00,82.9,62.9,29.79,West,270,0.0,-999.0,51,-99.99,,,0.00,Acu-Link.com,2013-12-04 18:41:00,
2013-12-04 13:56:00,84.2,62.4,29.79,WNW,292,2.2,-999.0,48,-99.99,,,0.00,Acu-Link.com,2013-12-04 18:56:00,
2013-12-04 14:11:00,82.2,62.2,29.78,North,0,2.2,-999.0,51,-99.99,,,0.00,Acu-Link.com,2013-12-04 19:11:00,
2013-12-04 14:26:00,83.1,62.5,29.77,ENE,67,0.0,-999.0,50,-99.99,,,0.00,Acu-Link.com,2013-12-04 19:26:00,
2013-12-04 14:41:00,82.8,62.2,29.77,NNW,337,2.7,-999.0,50,-99.99,,,0.00,Acu-Link.com,2013-12-04 19:41:00,
2013-12-04 14:56:00,84.2,63.5,29.77,NE,45,1.1,-999.0,50,-99.99,,,0.00,Acu-Link.com,2013-12-04 19:56:00,
2013-12-04 15:12:00,81.9,63.6,29.76,WNW,292,1.1,-999.0,54,-99.99,,,0.00,Acu-Link.com,2013-12-04 20:12:00,
2013-12-04 15:27:00,82.9,62.9,29.77,South,180,0.0,-999.0,51,-99.99,,,0.00,Acu-Link.com,2013-12-04 20:27:00,
2013-12-04 15:42:00,82.9,63.4,29.76,SE,135,0.0,-999.0,52,-99.99,,,0.00,Acu-Link.com,2013-12-04 20:42:00,
2013-12-04 15:57:00,81.5,63.7,29.77,SE,135,0.0,-999.0,55,-99.99,,,0.00,Acu-Link.com,2013-12-04 20:57:00,
2013-12-04 16:12:00,80.8,63.6,29.77,SSW,202,1.1,-999.0,56,-99.99,,,0.00,Acu-Link.com,2013-12-04 21:12:00,
2013-12-04 16:27:00,80.8,63.6,29.77,SSE,157,0.0,-999.0,56,-99.99,,,0.00,Acu-Link.com,2013-12-04 21:27:00,
2013-12-04 16:42:00,79.5,63.9,29.77,West,270,0.0,-999.0,59,-99.99,,,0.00,Acu-Link.com,2013-12-04 21:42:00,
2013-12-04 16:58:00,78.3,63.3,29.77,SSE,157,0.0,-999.0,60,-99.99,,,0.00,Acu-Link.com,2013-12-04 21:58:00,
2013-12-04 17:13:00,76.6,62.6,29.78,ESE,112,0.0,-999.0,62,-99.99,,,0.00,Acu-Link.com,2013-12-04 22:13:00,
2013-12-04 17:28:00,76.3,62.8,29.79,SE,135,0.0,-999.0,63,-99.99,,,0.00,Acu-Link.com,2013-12-04 22:28:00,
2013-12-04 17:43:00,73.9,60.9,29.79,NNE,22,0.0,-999.0,64,-99.99,,,0.00,Acu-Link.com,2013-12-04 22:43:00,
2013-12-04 17:58:00,74.3,61.3,29.80,East,90,0.0,-999.0,64,-99.99,,,0.00,Acu-Link.com,2013-12-04 22:58:00,
2013-12-04 18:13:00,75.4,61.5,29.80,NW,315,0.0,-999.0,62,-99.99,,,0.00,Acu-Link.com,2013-12-04 23:13:00,
2013-12-04 18:28:00,74.5,61.5,29.81,ESE,112,0.0,-999.0,64,-99.99,,,0.00,Acu-Link.com,2013-12-04 23:28:00,
2013-12-04 18:44:00,74.7,61.7,29.81,NW,315,0.0,-999.0,64,-99.99,,,0.00,Acu-Link.com,2013-12-04 23:44:00,
2013-12-04 18:59:00,72.5,60.9,29.81,NE,45,1.1,-999.0,67,-99.99,,,0.00,Acu-Link.com,2013-12-04 23:59:00,
2013-12-04 19:14:00,73.0,61.0,29.82,East,90,1.7,-999.0,66,-99.99,,,0.00,Acu-Link.com,2013-12-05 00:14:00,
2013-12-04 19:30:00,72.9,60.9,29.82,East,90,1.1,-999.0,66,-99.99,,,0.00,Acu-Link.com,2013-12-05 00:30:00,
2013-12-04 19:45:00,72.3,60.7,29.82,NNE,22,0.0,-999.0,67,-99.99,,,0.00,Acu-Link.com,2013-12-05 00:45:00,
2013-12-04 20:00:00,72.0,60.8,29.83,SW,225,0.0,-999.0,68,-99.99,,,0.00,Acu-Link.com,2013-12-05 01:00:00,
2013-12-04 20:15:00,71.6,60.5,29.83,East,90,0.0,-999.0,68,-99.99,,,0.00,Acu-Link.com,2013-12-05 01:15:00,
2013-12-04 20:31:00,70.3,60.4,29.84,SE,135,0.0,-999.0,71,-99.99,,,0.00,Acu-Link.com,2013-12-05 01:31:00,
2013-12-04 20:46:00,69.8,60.0,29.84,SSE,157,0.0,-999.0,71,-99.99,,,0.00,Acu-Link.com,2013-12-05 01:46:00,
2013-12-04 21:01:00,69.8,60.0,29.83,East,90,0.0,-999.0,71,-99.99,,,0.00,Acu-Link.com,2013-12-05 02:01:00,
2013-12-04 21:16:00,68.5,60.6,29.84,ESE,112,0.0,-999.0,76,-99.99,,,0.00,Acu-Link.com,2013-12-05 02:16:00,
2013-12-04 21:31:00,68.5,61.0,29.84,SSE,157,0.0,-999.0,77,-99.99,,,0.00,Acu-Link.com,2013-12-05 02:31:00,
2013-12-04 21:47:00,67.6,61.6,29.84,ESE,112,0.0,-999.0,81,-99.99,,,0.00,Acu-Link.com,2013-12-05 02:47:00,
2013-12-04 22:02:00,67.5,61.5,29.84,NE,45,0.0,-999.0,81,-99.99,,,0.00,Acu-Link.com,2013-12-05 03:02:00,
2013-12-04 22:17:00,66.7,61.0,29.84,ENE,67,0.0,-999.0,82,-99.99,,,0.00,Acu-Link.com,2013-12-05 03:17:00,
2013-12-04 22:32:00,66.6,61.3,29.85,East,90,0.0,-999.0,83,-99.99,,,0.00,Acu-Link.com,2013-12-05 03:32:00,
2013-12-04 22:48:00,66.4,60.7,29.85,SSE,157,0.0,-999.0,82,-99.99,,,0.00,Acu-Link.com,2013-12-05 03:48:00,
2013-12-04 23:03:00,65.8,60.5,29.85,SE,135,0.0,-999.0,83,-99.99,,,0.00,Acu-Link.com,2013-12-05 04:03:00,
2013-12-04 23:18:00,66.7,61.4,29.86,NNW,337,0.0,-999.0,83,-99.99,,,0.00,Acu-Link.com,2013-12-05 04:18:00,
2013-12-04 23:33:00,65.7,60.4,29.86,ESE,112,0.0,-999.0,83,-99.99,,,0.00,Acu-Link.com,2013-12-05 04:33:00,
2013-12-04 23:48:00,65.1,61.1,29.86,SSE,157,0.0,-999.0,87,-99.99,,,0.00,Acu-Link.com,2013-12-05 04:48:00,